GW3170 Weather Reports


Display with metric or nautical units.
time (UTC)temp
F
wind
direction
speed
MPH
gust
MPH
rain 1hr
in
rain 24hr
in
rain mn
in
humidity
%
barometer
mb
20260504192554 72 252 9.0 16.0 0.00 0.01 0.00 42 1004.6
20260504192054 72 283 7.0 13.0 0.00 0.01 0.00 40 1004.6
20260504191557 72 232 7.0 12.0 0.00 0.01 0.00 40 1004.6
20260504191056 72 225 5.0 12.0 0.00 0.01 0.00 41 1004.6
20260504190557 72 234 7.0 12.0 0.00 0.01 0.00 42 1004.8
20260504190115 72 123 4.0 12.0 0.00 0.01 0.00 45 1004.9
20260504185554 71 272 8.0 13.0 0.00 0.01 0.00 44 1004.9
20260504185054 71 230 7.0 13.0 0.00 0.01 0.00 44 1004.9
20260504184606 70 213 6.0 13.0 0.00 0.01 0.00 43 1004.9
20260504184055 70 289 5.0 13.0 0.00 0.01 0.00 43 1005.0
20260504183559 71 255 8.0 14.0 0.00 0.01 0.00 43 1005.0
20260504183058 71 294 7.0 14.0 0.00 0.01 0.00 43 1005.0
20260504182557 71 269 5.0 9.0 0.00 0.01 0.00 44 1005.0
20260504182054 70 267 5.0 12.0 0.00 0.01 0.00 45 1005.1
20260504181556 70 242 6.0 12.0 0.00 0.01 0.00 47 1005.0
20260504181054 70 227 4.0 12.0 0.00 0.01 0.00 45 1005.1
20260504180553 69 286 5.0 12.0 0.00 0.01 0.00 47 1005.1
20260504180055 69 229 6.0 12.0 0.00 0.01 0.00 46 1005.3
20260504175558 69 236 4.0 11.0 0.00 0.01 0.00 47 1005.3
20260504175059 69 188 4.0 13.0 0.00 0.01 0.00 47 1005.4
20260504174601 69 223 7.0 13.0 0.00 0.01 0.00 45 1005.3
20260504174055 69 232 4.0 14.0 0.00 0.01 0.00 48 1005.3
20260504173555 69 255 8.0 14.0 0.00 0.01 0.00 43 1005.4
20260504173057 70 294 3.0 13.0 0.00 0.01 0.00 46 1005.5
20260504172554 69 137 6.0 13.0 0.00 0.01 0.00 45 1005.6
20260504172056 68 246 4.0 12.0 0.00 0.01 0.00 45 1005.5
20260504171555 69 261 6.0 13.0 0.00 0.01 0.00 45 1005.6
20260504171057 68 238 7.0 14.0 0.00 0.01 0.00 47 1005.7
20260504170555 68 214 7.0 14.0 0.00 0.01 0.00 47 1005.7
20260504151055 63 231 6.0 12.0 0.00 0.01 0.00 51 1006.8
20260504150553 63 160 5.0 14.0 0.00 0.01 0.00 50 1006.8
20260504141054 59 242 4.0 10.0 0.00 0.01 0.00 51 1006.9
20260504140554 59 121 3.0 11.0 0.00 0.01 0.00 53 1007.0
20260504140108 58 223 6.0 14.0 0.00 0.01 0.00 52 1007.0
20260504130555 55 119 5.0 11.0 0.00 0.01 0.00 55 1007.5
20260504110554 51 236 1.0 8.0 0.00 0.01 0.00 59 1007.4
20260504110118 51 106 3.0 8.0 0.00 0.01 0.00 59 1007.3
20260504100555 50 139 1.0 4.0 0.00 0.01 0.00 61 1007.3
20260504090119 50 207 2.0 6.0 0.00 0.01 0.00 60 1007.4
20260504081601 50 256 3.0 7.0 0.00 0.01 0.00 60 1007.6
20260504081054 50 213 2.0 7.0 0.00 0.01 0.00 60 1007.6
20260504080557 50 153 1.0 6.0 0.00 0.01 0.00 60 1007.7
20260504060103 50 233 1.0 5.0 0.00 0.01 0.00 65 1008.3
20260504050556 47 0 0.0 0.0 0.00 0.01 0.00 87 1008.6
20260504045555 47 0 0.0 0.0 0.00 0.01 0.00 86 1008.7
20260504045055 47 0 0.0 0.0 0.00 0.01 0.00 86 1008.7
20260504044604 47 0 0.0 0.0 0.00 0.01 0.00 86 1008.6
20260504044056 47 0 0.0 0.0 0.00 0.01 0.00 86 1008.7
20260504043556 47 0 0.0 0.0 0.00 0.01 0.00 86 1008.7
20260504043054 47 0 0.0 0.0 0.00 0.01 0.00 87 1008.7
20260504042555 47 0 0.0 0.0 0.00 0.01 0.00 86 1008.8
20260504042054 47 0 0.0 0.0 0.00 0.01 0.00 86 1008.8
20260504041556 47 0 0.0 0.0 0.00 0.01 0.00 86 1008.8
20260504041056 47 0 0.0 0.0 0.00 0.01 0.00 86 1008.9
20260504040555 47 0 0.0 0.0 0.00 0.01 0.00 86 1008.8
20260504040103 47 0 0.0 0.0 0.00 0.01 0.00 86 1008.8
20260504035555 47 0 0.0 0.0 0.00 0.01 0.01 86 1008.8
20260504035055 47 0 0.0 0.0 0.00 0.01 0.01 86 1008.8
20260504034603 47 0 0.0 0.0 0.00 0.01 0.01 86 1008.8
20260504034055 47 0 0.0 0.0 0.00 0.01 0.01 85 1008.9
20260504033555 47 0 0.0 0.0 0.00 0.01 0.01 85 1009.0
20260504033104 47 0 0.0 0.0 0.00 0.01 0.01 85 1009.0
20260504032556 47 0 0.0 0.0 0.00 0.01 0.01 85 1009.0
20260504032055 47 0 0.0 0.0 0.00 0.01 0.01 85 1009.1
20260504031556 47 0 0.0 0.0 0.00 0.01 0.01 84 1009.2
20260504031055 47 0 0.0 0.0 0.00 0.01 0.01 84 1009.2
20260504030555 48 0 0.0 0.0 0.00 0.01 0.01 85 1009.2
20260504030054 48 0 0.0 0.0 0.00 0.01 0.01 84 1009.3
20260504025552 48 0 0.0 0.0 0.00 0.01 0.01 84 1009.4
20260504025055 48 0 0.0 0.0 0.00 0.01 0.01 83 1009.3
20260504024601 48 0 0.0 0.0 0.00 0.01 0.01 83 1009.3
20260504024055 48 0 0.0 0.0 0.00 0.01 0.01 83 1009.3
20260504023556 48 0 0.0 0.0 0.00 0.01 0.01 82 1009.4
20260504023057 48 0 0.0 0.0 0.00 0.01 0.01 81 1009.3
20260504022556 48 0 0.0 0.0 0.00 0.01 0.01 81 1009.3
20260504022056 49 0 0.0 0.0 0.00 0.01 0.01 81 1009.5
20260504021554 49 0 0.0 0.0 0.01 0.01 0.01 80 1009.6
20260504021054 49 0 0.0 0.0 0.01 0.01 0.01 78 1009.8
20260504020555 49 0 0.0 0.0 0.01 0.01 0.01 78 1009.9
20260504020055 49 0 0.0 0.0 0.01 0.01 0.01 77 1009.8
20260504015555 50 0 0.0 0.0 0.01 0.01 0.01 76 1009.9
20260504015056 50 0 0.0 4.0 0.01 0.01 0.01 76 1009.9
20260504014556 50 0 0.0 4.0 0.01 0.01 0.01 76 1009.9
20260504014058 50 292 2.0 8.0 0.01 0.01 0.01 75 1009.9
20260504013555 50 285 3.0 11.0 0.01 0.01 0.01 75 1009.9
20260504013057 50 300 5.0 11.0 0.01 0.01 0.01 74 1010.0
20260504012555 50 297 5.0 15.0 0.01 0.01 0.01 74 1010.2
20260504012055 51 303 7.0 15.0 0.01 0.01 0.01 73 1010.3
20260504011555 51 281 6.0 10.0 0.00 0.00 0.00 70 1010.2
20260504011054 51 276 5.0 12.0 0.00 0.00 0.00 68 1010.2
20260504010554 52 304 6.0 12.0 0.00 0.00 0.00 67 1010.1
20260504010101 52 290 8.0 12.0 0.00 0.00 0.00 65 1010.0
20260504005554 52 295 5.0 12.0 0.00 0.00 0.00 65 1009.8
20260504005057 52 296 7.0 17.0 0.00 0.00 0.00 64 1009.8
20260504004555 53 304 4.0 19.0 0.00 0.00 0.00 62 1009.8
20260504004058 53 325 8.0 19.0 0.00 0.00 0.00 60 1009.8
20260504003557 53 283 7.0 14.0 0.00 0.00 0.00 62 1009.9
20260504003055 54 290 7.0 19.0 0.00 0.00 0.00 59 1009.8
20260504002554 54 297 6.0 19.0 0.00 0.00 0.00 55 1009.6
20260504002054 54 262 8.0 16.0 0.00 0.00 0.00 56 1009.3
20260504001612 54 293 7.0 13.0 0.00 0.00 0.00 56 1009.2
20260504001054 53 281 3.0 7.0 0.00 0.00 0.00 53 1009.2
20260504000553 54 205 0.0 1.0 0.00 0.00 0.00 54 1008.9
20260504000056 54 0 0.0 0.0 0.00 0.00 0.00 54 1008.9
20260503235553 54 0 0.0 0.0 0.00 0.00 0.00 54 1008.6
20260503235055 54 0 0.0 0.0 0.00 0.00 0.00 53 1008.6
20260503234556 54 0 0.0 0.0 0.00 0.00 0.00 53 1008.6
20260503234055 54 0 0.0 1.0 0.00 0.00 0.00 52 1008.6
20260503233554 54 0 0.0 1.0 0.00 0.00 0.00 51 1008.5
20260503233056 54 0 0.0 2.0 0.00 0.00 0.00 50 1008.7
20260503232558 54 0 0.0 7.0 0.00 0.00 0.00 48 1008.6
20260503232055 54 0 3.0 7.0 0.00 0.00 0.00 49 1008.7
20260503231556 54 231 1.0 6.0 0.00 0.00 0.00 48 1008.9
20260503231054 54 0 2.0 6.0 0.00 0.00 0.00 51 1009.0
20260503230555 54 280 2.0 10.0 0.00 0.00 0.00 50 1009.1
20260503230055 54 0 4.0 10.0 0.00 0.00 0.00 50 1009.2
20260503225555 55 339 3.0 12.0 0.00 0.00 0.00 48 1009.6
20260503225054 55 341 4.0 12.0 0.00 0.00 0.00 48 1009.7
20260503224556 55 310 6.0 12.0 0.00 0.00 0.00 46 1009.7
20260503224054 55 303 4.0 10.0 0.00 0.00 0.00 47 1009.5
20260503223555 56 323 3.0 9.0 0.00 0.00 0.00 45 1009.4
20260503223057 56 309 3.0 9.0 0.00 0.00 0.00 43 1009.3
20260503222559 56 321 1.0 6.0 0.00 0.00 0.00 44 1009.4
20260503222056 56 286 0.0 6.0 0.00 0.00 0.00 44 1009.2
20260503221556 56 290 3.0 6.0 0.00 0.00 0.00 44 1009.3
20260503221059 56 334 2.0 7.0 0.00 0.00 0.00 44 1009.1
20260503220556 56 299 2.0 7.0 0.00 0.00 0.00 44 1009.0
20260503220111 56 258 4.0 8.0 0.00 0.00 0.00 43 1008.9
20260503215555 57 297 3.0 10.0 0.00 0.00 0.00 44 1008.9
20260503215055 56 213 4.0 10.0 0.00 0.00 0.00 44 1009.1
20260503214555 56 271 5.0 11.0 0.00 0.00 0.00 43 1009.1
20260503214055 56 266 4.0 11.0 0.00 0.00 0.00 44 1009.2
20260503213558 56 288 6.0 11.0 0.00 0.00 0.00 42 1009.3
20260503213056 56 281 6.0 11.0 0.00 0.00 0.00 43 1009.2
20260503212555 56 285 4.0 8.0 0.00 0.00 0.00 44 1009.2
20260503212054 55 284 4.0 8.0 0.00 0.00 0.00 45 1009.2
20260503211606 56 304 6.0 10.0 0.00 0.00 0.00 44 1009.1
20260503211057 56 283 6.0 13.0 0.00 0.00 0.00 43 1009.2
20260503210555 56 295 5.0 14.0 0.00 0.00 0.00 42 1009.2
20260503210057 56 252 7.0 14.0 0.00 0.00 0.00 42 1009.2
20260503205555 56 293 2.0 8.0 0.00 0.00 0.00 41 1009.3
20260503205101 56 259 1.0 9.0 0.00 0.00 0.00 46 1009.3
20260503204602 56 309 4.0 9.0 0.00 0.00 0.00 46 1009.5
20260503204053 55 258 4.0 9.0 0.00 0.00 0.00 48 1009.5
20260503203554 55 225 4.0 9.0 0.00 0.00 0.00 47 1009.5
20260503203057 55 239 3.0 7.0 0.00 0.00 0.00 47 1009.6
20260503202558 55 288 4.0 9.0 0.00 0.00 0.00 47 1009.7
20260503202056 55 223 5.0 9.0 0.00 0.00 0.00 47 1009.7
20260503201554 55 279 5.0 9.0 0.00 0.00 0.00 49 1009.8
20260503201055 55 272 3.0 11.0 0.00 0.00 0.00 48 1009.8
20260503200552 55 293 7.0 11.0 0.00 0.00 0.00 47 1009.9
20260503200056 56 241 6.0 12.0 0.00 0.00 0.00 48 1009.9
20260503195555 56 308 3.0 12.0 0.00 0.00 0.00 43 1009.9
20260503195053 56 335 7.0 12.0 0.00 0.00 0.00 42 1010.1
20260503194557 55 262 8.0 14.0 0.00 0.00 0.00 42 1010.1
20260503194054 55 269 6.0 14.0 0.00 0.00 0.00 48 1010.2
20260503193554 55 288 2.0 10.0 0.00 0.00 0.00 47 1010.4
20260503193113 54 290 4.0 10.0 0.00 0.00 0.00 47 1010.4